Lid_Strength_Index
12 14 16 16 15 15 16 16 17 15 13 14 14 14 13 11 11 11 10 10 10 9 8 7 7 7 6 5 3 1 2 1 1 1 3 3 3 2 1 0 -0 -0 1 2
14 16 15 14 14 15 15 16 15 14 13 14 14 14 12 11 11 11 11 10 10 9 8 7 7 6 6 6 5 2 1 1 1 1 2 2 3 3 2 1 1 2 3 4
16 15 14 14 15 16 15 16 16 16 14 13 13 15 14 12 10 10 9 9 9 9 8 7 6 6 6 6 5 4 1 1 1 1 2 2 3 4 4 3 4 4 5 5
14 14 15 15 16 15 17 14 14 15 15 18 13 20 15 13 11 10 9 8 8 7 6 6 6 6 6 5 4 4 2 1 1 1 2 3 5 7 7 5 6 8 7 7
16 15 16 16 15 14 16 13 14 14 15 16 15 16 16 11 11 9 7 5 5 4 4 4 5 5 5 4 4 3 4 1 1 1 2 3 6 6 6 7 9 9 8 8
14 13 14 14 13 13 12 13 13 13 14 19 15 14 15 11 9 8 6 5 5 4 4 3 3 2 2 3 4 3 4 2 1 2 2 4 5 5 8 8 9 11 11 11
15 15 14 12 14 12 13 15 18 19 18 18 11 13 12 8 7 7 7 6 5 4 4 4 4 3 3 3 2 3 3 3 2 2 3 4 4 6 8 9 9 11 13 12
19 19 15 12 14 15 14 14 17 22 20 17 12 16 12 7 6 6 6 6 6 6 5 5 5 5 4 4 3 3 4 3 2 2 2 3 3 7 6 7 10 12 13 13
18 17 13 13 12 13 14 15 11 15 14 17 13 12 9 8 8 7 8 7 8 7 6 6 6 6 6 6 5 4 3 2 2 2 2 4 4 7 8 9 11 12 13 14
16 19 14 13 12 11 12 10 14 14 19 20 15 15 13 10 10 9 8 9 8 7 8 8 8 9 8 7 6 4 2 2 2 2 3 5 6 7 9 10 12 13 14 15
15 17 15 14 14 14 13 13 12 12 14 18 19 16 9 10 10 10 9 8 8 9 9 10 10 8 8 7 4 3 3 2 3 2 3 7 8 9 10 12 14 14 15 15
14 16 18 15 12 11 11 12 11 15 16 14 16 17 9 8 8 9 10 9 9 9 10 10 9 9 8 5 4 3 3 3 3 3 6 9 11 11 12 13 13 15 15 15
14 16 19 15 13 12 13 11 11 11 13 17 18 18 8 8 9 9 10 10 10 11 11 11 10 10 9 7 6 3 3 4 5 7 9 10 11 12 13 14 13 15 15 16
13 16 17 19 16 14 15 13 12 13 16 16 16 16 12 10 11 10 11 11 11 12 12 12 11 11 11 8 7 6 6 7 7 8 9 10 12 13 13 14 14 15 16 16
14 19 17 15 14 14 14 14 14 15 14 17 15 14 12 10 11 11 11 11 12 13 13 13 13 13 12 10 9 8 8 8 8 9 10 12 13 14 14 15 15 16 16 16
14 18 19 19 15 15 17 15 14 14 14 14 13 15 10 9 11 12 13 12 13 13 14 14 13 13 13 12 11 10 9 9 9 11 12 12 14 14 15 15 16 16 16 16
16 17 19 21 18 19 19 17 14 13 12 12 15 12 11 12 13 13 13 13 13 13 14 14 14 14 13 13 12 11 11 10 12 13 13 14 14 15 15 16 16 17 17 16
16 17 18 21 19 20 13 12 12 13 13 12 12 12 10 12 12 12 11 14 13 13 14 14 15 14 14 13 12 12 11 13 13 14 14 15 15 16 16 16 16 16 16 16
14 17 20 22 21 17 14 12 11 12 13 11 12 10 11 12 13 13 12 13 13 13 14 14 14 14 14 14 13 13 13 14 14 13 14 14 15 16 16 17 17 16 16 16
16 16 18 22 23 22 14 11 10 11 16 10 11 12 13 13 17 15 13 13 12 14 14 15 14 14 14 14 14 13 14 14 15 14 15 15 15 16 16 16 16 16 16 17
20 20 21 19 21 17 13 11 10 17 14 11 11 13 14 15 14 14 13 13 12 14 14 14 14 15 15 14 14 15 15 16 16 16 16 16 15 16 16 17 17 17 17 18
20 21 21 20 20 22 11 12 14 10 9 11 12 13 15 14 13 13 13 14 13 14 15 15 15 15 15 14 15 16 17 16 16 16 16 17 17 17 16 16 17 17 17 17
20 16 18 17 17 12 10 9 8 8 10 11 12 13 14 13 13 13 14 14 14 14 15 15 15 15 15 14 14 16 16 16 16 16 16 16 16 16 16 17 17 17 16 15
19 16 18 18 14 13 11 10 10 10 11 11 12 13 13 13 12 13 14 15 15 15 16 15 14 15 15 15 15 15 16 15 15 16 17 17 17 17 16 16 15 14 14 14
16 18 18 17 14 13 12 11 10 11 11 13 13 13 13 12 12 13 13 13 14 15 16 16 15 16 17 16 15 15 16 15 16 17 17 16 16 15 15 14 14 14 14 13
17 17 18 17 13 12 11 10 11 12 13 13 14 14 13 13 13 13 13 13 14 14 15 16 16 16 16 16 15 14 14 14 15 16 16 15 14 14 14 15 15 14 14 13